GPS BIIRM-4 (PRN 15)

Last updated on Wed Jun 24 2026 00:03:27 GMT+0000 (Coordinated Universal Time)

1 32260U 07047A 26173.21082181 -.00000062 00000+0 00000+0 0 9990 2 32260 54.0988 79.8584 0166962 87.4865 274.4365 2.00555002136918
UTC large
Height (km)
Speed (km/s)
/
Latitude / Longitude
Inclination (degrees)
Orbital Period (minutes)
Azimuth
Elevation
Range (km)
Doppler Factor

Next 0 passes for location: London (51.5072 / 0.1276)

No passes found over London.
GPS BIIRM-4 (PRN 15)